Temperature
21 21 20 20 19 19 19 18 18 18 17 17 17 16 16 16 16 16 16 16 16 16 15 15 15 15 15 15 15 15 15 15 15 15 15 15 15 14 14 14 14 14 13
22 21 20 20 19 19 19 18 18 18 17 17 17 16 16 16 16 16 16 16 15 15 15 15 15 15 15 15 15 15 15 15 15 15 15 14 14 14 14 14 14 14 13
22 21 20 20 19 19 19 18 18 18 17 17 17 16 16 16 16 16 16 15 15 15 15 15 15 15 15 15 15 15 15 14 15 15 14 14 14 14 14 14 14 13 13
22 21 20 20 19 19 19 18 18 18 17 17 16 16 16 16 16 16 16 15 15 15 15 15 15 15 15 15 15 15 14 15 14 14 14 14 14 14 13 13 13 13 13
21 20 20 19 19 18 18 18 18 17 17 17 16 16 16 16 16 16 16 15 15 15 15 15 15 15 15 15 15 15 15 14 14 14 14 14 14 14 14 13 13 13 13
21 20 20 19 18 18 18 17 17 17 17 17 16 16 16 16 16 16 15 15 15 15 15 15 15 15 15 15 15 15 15 14 14 14 14 14 14 14 14 14 13 13 13
20 20 19 19 18 18 17 17 17 17 17 17 16 16 16 16 16 16 15 15 15 15 15 15 15 15 15 15 15 15 15 14 14 14 14 14 14 14 14 14 13 13 13
20 20 19 18 18 17 17 17 17 16 16 16 16 16 16 16 16 16 15 15 15 15 15 15 15 15 15 15 15 15 14 14 14 14 14 14 14 14 14 14 14 13 13
20 19 19 18 17 17 17 16 16 16 16 16 16 16 16 16 16 16 15 15 15 15 15 15 15 15 15 15 15 14 14 14 14 14 14 14 14 14 14 14 14 13 13
20 19 18 18 17 17 16 16 16 16 16 16 16 16 16 16 16 16 15 15 15 15 15 15 15 15 15 15 15 15 14 14 14 14 14 14 14 14 14 14 13 13 13
20 19 18 18 17 17 16 16 16 16 16 16 16 16 16 15 15 15 15 15 15 15 15 15 15 15 15 15 14 14 14 14 14 14 14 14 14 14 14 13 13 13 13
19 18 18 17 17 16 16 16 16 15 15 15 15 15 15 15 15 15 15 15 15 15 15 15 15 15 15 14 14 14 14 14 14 14 14 14 14 14 13 13 13 13 13
19 18 17 17 17 16 16 16 16 15 15 15 15 15 15 15 15 15 15 15 14 14 15 14 15 14 14 14 14 14 14 14 14 14 14 14 14 13 13 13 13 13 13
18 17 17 17 16 16 16 16 15 15 15 15 15 15 15 15 15 15 15 14 14 14 14 14 14 14 14 14 14 14 14 14 13 13 14 14 13 13 13 13 13 13 13
18 17 17 16 16 16 16 16 15 15 15 15 14 14 14 14 14 14 14 14 14 14 14 14 14 14 14 14 14 14 14 14 14 13 13 13 13 13 13 13 13 13 13
17 17 16 16 16 16 16 15 15 15 15 14 14 14 14 14 14 14 14 14 14 14 14 14 14 14 14 14 14 14 13 13 13 13 13 13 13 13 13 13 13 13 12
17 16 16 16 16 15 15 15 15 15 14 14 14 14 13 14 13 13 13 13 13 13 13 14 14 13 13 13 13 13 13 13 13 13 13 13 13 13 13 13 13 13 12
16 16 16 16 15 15 15 15 14 14 14 14 14 13 13 13 13 13 13 13 13 13 13 13 13 13 13 13 13 13 13 13 13 13 13 13 13 13 13 12 12 12 12
16 16 15 15 15 15 15 14 14 14 14 14 13 13 13 13 13 13 13 13 13 13 13 13 13 13 13 13 13 13 13 13 13 12 12 12 12 12 12 12 12 12 12
15 15 15 15 15 15 14 14 14 14 14 13 13 13 13 12 12 12 12 12 12 12 12 12 12 12 12 12 12 12 12 12 12 12 12 12 12 12 12 12 12 12 12
15 15 14 14 14 14 14 14 14 14 13 13 13 13 12 12 12 12 12 12 12 12 12 12 12 12 12 12 12 12 12 12 12 12 12 12 12 12 12 12 12 12 11
14 14 14 14 14 14 14 13 13 13 13 13 12 12 12 12 12 12 12 12 12 12 11 12 12 12 12 12 12 12 12 12 11 11 12 12 12 12 11 11 11 11 11
14 14 14 13 13 13 13 13 13 13 13 12 12 12 12 12 12 11 11 11 11 11 11 11 11 11 11 11 11 11 11 11 11 11 11 11 11 11 11 11 11 11 11
13 13 13 13 13 13 13 13 13 12 12 12 12 12 11 11 11 11 11 11 11 11 11 11 11 11 11 11 11 11 11 11 11 11 11 11 10 10 10 10 10 10 10
13 12 12 12 12 12 12 12 12 12 12 12 11 11 11 11 11 11 11 11 11 11 11 11 11 11 11 11 11 11 11 10 10 10 10 10 10 10 10 10 10 10 9
12 12 12 12 12 12 11 11 11 11 11 11 11 11 11 11 11 11 11 10 10 10 10 10 10 10 10 10 10 10 10 10 10 10 10 9 9 9 9 9 9 9 9
Wind_Speed
8 8 7 6 5 5 5 6 6 5 4 3 2 2 2 2 2 3 5 5 6 6 5 3 3 3 3 3 3 4 4 3 2 3 3 3 3 3 3 4 4 4 6
8 8 8 7 6 5 5 5 6 6 5 3 3 2 3 2 3 2 3 4 4 4 4 3 3 3 3 3 4 3 2 1 1 1 2 1 2 3 3 3 3 3 4
7 8 8 7 6 5 5 5 5 5 6 5 3 2 3 2 3 2 2 2 4 3 3 3 3 3 3 3 3 3 2 1 1 2 2 1 1 1 2 2 2 3 3
5 7 6 6 6 5 4 4 4 5 5 5 3 3 3 3 3 2 2 1 3 3 2 2 3 3 3 3 2 3 2 2 1 1 1 1 2 2 1 1 1 2 2
5 6 6 6 5 5 4 4 3 4 4 5 5 3 3 2 2 2 3 2 2 2 2 2 2 2 2 3 3 3 2 1 1 0 0 1 1 1 2 1 0 1 1
5 6 7 6 5 5 5 4 4 3 3 3 4 4 4 3 3 2 2 2 2 1 2 2 2 2 2 2 2 2 3 1 1 0 0 1 0 1 1 1 2 1 0
6 6 7 6 6 5 5 5 4 3 3 3 3 4 4 3 3 3 2 2 2 1 2 1 2 2 2 2 2 1 1 1 1 1 1 1 1 1 2 2 1 1 1
6 6 7 7 6 6 5 4 4 4 3 2 2 2 4 2 2 2 3 2 2 2 2 2 2 3 2 2 2 1 1 1 1 2 1 0 1 1 2 2 2 1 0
6 6 6 7 7 6 5 5 5 4 3 2 2 2 3 3 2 1 2 2 2 2 2 2 3 3 2 2 1 1 1 1 1 1 1 1 1 1 1 2 2 3 1
5 6 5 6 6 6 6 5 5 4 3 2 2 2 2 3 2 2 1 1 1 2 2 3 2 2 2 2 2 1 1 2 1 1 1 1 1 2 1 1 1 2 3
5 6 5 5 6 5 6 6 5 4 3 3 3 2 2 2 2 2 2 2 1 2 2 2 2 2 2 2 3 2 1 1 0 0 2 2 2 2 1 1 1 2 3
5 5 6 5 5 5 5 5 5 5 4 3 3 2 2 2 2 2 2 1 2 1 1 2 2 2 2 2 2 2 1 1 1 1 1 2 2 2 1 1 1 2 2
5 5 5 4 4 4 4 5 5 5 4 4 3 2 1 2 2 1 1 1 2 1 1 2 2 2 2 1 1 1 1 1 0 0 1 1 2 2 1 1 1 1 2
5 4 3 3 3 3 3 4 4 4 5 4 3 2 1 2 2 1 1 1 1 1 1 1 2 3 2 1 2 1 1 0 0 1 1 2 2 2 1 1 1 2 2
3 3 3 2 2 3 3 3 3 4 5 5 4 3 2 2 3 2 2 1 1 1 1 2 3 2 2 2 2 1 0 0 0 0 1 2 3 3 2 2 2 2 2
3 2 2 2 2 2 3 3 3 3 4 5 4 3 3 2 3 3 2 2 2 1 1 2 2 2 2 3 3 1 1 1 0 0 1 1 2 3 3 3 3 3 3
2 2 1 1 2 2 2 3 3 3 4 4 4 4 4 3 3 3 3 2 2 2 2 2 1 2 2 2 2 1 1 1 1 1 1 1 2 2 1 2 2 2 1
1 1 0 0 1 1 2 2 3 3 4 4 4 4 4 3 2 3 3 3 2 2 2 2 2 2 2 1 1 1 1 1 1 1 1 2 2 2 2 2 1 1 2
2 1 1 1 1 1 1 2 2 3 3 4 4 4 4 4 3 4 4 3 2 2 2 2 3 3 2 1 1 1 1 2 2 2 1 2 2 2 3 2 2 1 2
2 1 2 1 1 1 1 2 3 3 3 4 4 3 4 4 4 4 4 3 3 3 3 3 3 3 3 3 2 2 1 1 1 1 0 2 2 2 3 2 3 2 2
1 1 1 1 2 2 1 3 3 3 3 3 3 3 3 3 4 3 3 3 4 3 3 3 3 3 4 4 4 3 2 1 1 1 1 1 2 2 2 2 2 3 2
2 1 1 2 2 2 3 3 3 3 2 3 3 3 3 3 3 3 3 3 4 4 3 3 3 2 3 3 4 3 2 1 1 1 1 2 3 2 2 2 2 2 1
2 2 1 2 2 2 2 3 2 2 3 3 4 3 3 2 2 3 3 2 3 3 3 3 3 2 2 3 4 4 3 3 1 1 2 2 3 3 2 3 3 2 1
3 2 2 2 2 2 2 2 2 2 3 4 4 4 4 3 3 3 3 3 3 3 3 3 3 3 2 2 2 2 3 2 1 1 1 2 3 2 2 2 2 2 2
2 2 1 2 3 3 2 2 1 2 2 3 3 4 4 4 3 3 3 4 4 4 4 4 3 3 3 4 4 3 3 3 2 1 0 0 1 2 2 2 2 2 2
3 2 2 2 2 3 2 2 1 2 2 3 3 3 3 3 3 3 2 3 4 5 5 5 4 3 4 4 5 5 4 4 4 3 2 2 3 3 4 3 3 3 3
Wind_Direction
162 155 149 147 147 139 132 129 131 125 113 106 102 103 101 90 75 72 67 62 72 87 92 91 93 84 87 89 83 82 77 66 73 80 67 50 63 70 72 69 70 72 83
165 155 153 153 152 146 140 138 139 135 129 128 134 138 124 113 101 80 75 73 80 80 99 109 107 95 91 89 88 86 71 59 94 108 104 79 37 22 60 69 73 67 71
165 160 159 155 153 150 148 146 143 139 136 136 123 122 105 105 99 98 88 77 91 85 92 111 124 131 125 121 124 121 110 77 355 50 92 117 137 39 22 68 80 66 62
148 145 145 144 144 140 135 131 132 133 131 130 129 133 128 128 131 125 127 128 113 104 96 100 114 108 114 131 148 129 119 108 27 355 21 80 130 138 109 357 65 83 74
133 134 134 129 129 132 128 128 133 128 128 137 142 141 123 128 122 120 135 121 101 106 108 87 83 88 104 118 109 107 101 97 114 108 358 38 39 134 142 159 163 53 59
138 135 127 122 120 119 119 121 123 114 120 140 139 140 128 126 121 110 116 109 109 87 94 95 94 88 79 90 105 124 133 148 133 13 47 130 124 133 120 144 156 133 68
144 137 130 131 125 121 122 123 122 125 132 137 142 140 136 139 144 140 138 136 137 149 142 112 100 86 82 90 99 108 140 168 160 142 58 38 13 96 121 132 147 133 157
135 139 141 140 136 133 133 134 131 128 127 135 132 132 135 137 146 154 152 162 168 164 149 142 117 111 101 91 87 65 104 121 144 137 130 93 23 59 112 132 130 115 88
126 125 130 137 138 140 143 142 134 130 129 124 134 130 123 120 125 149 148 155 162 157 143 135 122 122 121 103 74 61 49 59 66 85 93 94 96 77 73 104 135 141 131
125 121 122 131 138 149 152 145 142 142 140 145 137 126 121 134 140 131 110 121 127 116 125 135 139 142 133 127 108 79 38 54 41 98 100 88 82 85 81 94 81 102 134
123 123 126 135 135 141 151 150 147 141 139 145 136 126 131 128 132 133 145 148 127 120 133 156 160 158 146 138 134 148 157 132 93 246 149 129 107 94 87 100 81 83 108
109 113 124 124 139 153 163 161 156 152 150 150 141 132 147 155 152 145 147 136 134 139 158 148 141 136 127 124 132 159 153 141 153 229 134 128 118 107 86 93 115 118 123
109 105 109 125 137 154 164 164 159 157 152 150 150 148 157 163 145 155 158 152 142 135 118 121 130 131 126 122 124 122 95 72 111 101 104 124 124 136 140 138 129 132 130
113 114 111 124 133 142 156 162 165 159 150 150 158 164 173 158 157 165 140 139 132 146 141 124 122 124 127 114 102 73 94 111 45 63 86 94 108 139 161 157 150 133 130
109 125 131 130 139 158 161 147 156 159 155 154 160 178 178 148 158 150 147 146 134 134 111 99 100 104 107 98 103 109 206 156 59 64 85 103 108 116 126 138 143 135 141
128 125 143 152 168 181 170 158 153 165 159 161 166 171 162 146 159 157 156 157 142 118 91 94 98 109 108 91 89 117 261 238 215 228 210 175 124 108 109 116 120 137 163
127 133 177 198 188 199 188 167 165 169 163 164 158 157 156 148 164 168 162 164 161 146 145 139 135 126 114 116 103 77 266 218 215 234 208 193 142 127 139 142 145 140 166
86 85 299 275 280 218 178 168 168 169 157 158 161 163 162 160 169 171 167 174 178 170 169 163 163 142 142 137 153 255 248 224 199 195 203 186 186 177 161 173 164 184 210
46 42 314 307 283 278 187 158 168 163 159 160 167 171 170 169 174 177 176 183 187 194 185 173 172 163 180 190 184 176 238 227 215 199 192 170 173 166 152 169 190 205 242
34 2 320 307 292 284 197 181 187 181 179 171 174 182 177 174 181 186 185 183 174 195 199 188 183 175 182 197 192 191 208 229 236 195 161 156 160 163 155 174 183 196 225
352 330 313 304 288 288 232 205 206 196 178 164 172 185 189 188 185 183 182 181 181 192 201 193 198 192 185 191 190 185 184 224 225 209 192 161 128 146 161 174 186 204 210
322 296 282 281 278 262 238 217 204 185 170 171 181 192 194 193 194 183 187 186 185 195 207 208 210 203 184 178 191 194 212 229 218 223 206 196 172 170 196 203 208 214 197
314 310 291 285 277 268 246 237 187 164 181 186 195 195 196 187 185 185 184 185 186 199 209 208 208 205 184 189 190 198 217 240 234 222 188 191 196 192 207 205 205 206 193
305 306 305 291 281 274 269 252 196 185 199 199 196 196 195 196 194 190 188 185 194 206 211 210 213 210 193 187 189 208 221 223 241 275 195 184 192 204 209 205 210 211 209
311 298 270 286 293 292 292 269 207 185 205 205 200 202 202 195 194 194 199 199 203 202 205 210 203 197 211 216 199 188 199 206 211 175 114 210 198 199 210 211 215 212 212
323 321 321 312 306 307 303 286 237 213 207 213 214 208 203 198 194 191 203 218 213 209 208 208 200 213 214 208 205 210 209 203 186 161 194 217 218 214 213 215 214 211 209
Height
1513 1515 1517 1519 1521 1523 1524 1525 1526 1527 1528 1529 1530 1531 1532 1532 1533 1534 1534 1535 1535 1536 1536 1537 1537 1537 1538 1538 1539 1539 1539 1540 1540 1541 1541 1542 1542 1542 1542 1542 1542 1542 1542
1511 1513 1516 1518 1520 1521 1523 1524 1525 1526 1528 1529 1530 1531 1532 1533 1533 1534 1534 1535 1536 1536 1537 1537 1538 1538 1538 1539 1539 1540 1540 1540 1541 1542 1542 1542 1544 1543 1543 1543 1543 1543 1543
1509 1511 1514 1516 1518 1520 1522 1523 1524 1526 1527 1528 1529 1531 1532 1532 1533 1534 1534 1535 1536 1536 1537 1538 1538 1539 1539 1539 1540 1540 1540 1541 1542 1542 1543 1543 1543 1544 1544 1544 1544 1544 1544
1507 1509 1512 1514 1516 1518 1520 1522 1523 1525 1526 1527 1528 1530 1531 1532 1533 1534 1534 1535 1536 1537 1537 1538 1539 1539 1540 1540 1540 1541 1541 1541 1542 1542 1543 1543 1543 1543 1544 1545 1545 1545 1544
1506 1508 1510 1513 1515 1517 1519 1521 1522 1524 1525 1526 1528 1529 1530 1532 1533 1534 1535 1536 1536 1537 1537 1538 1539 1539 1540 1540 1540 1541 1541 1541 1541 1542 1542 1542 1543 1543 1543 1544 1545 1545 1545
1505 1507 1509 1511 1514 1516 1517 1519 1521 1523 1524 1525 1527 1528 1530 1531 1532 1534 1534 1535 1536 1537 1537 1538 1538 1539 1539 1540 1540 1540 1541 1541 1541 1541 1542 1542 1542 1542 1542 1543 1544 1544 1545
1503 1505 1507 1509 1512 1514 1516 1518 1520 1521 1523 1525 1526 1528 1529 1531 1532 1533 1534 1535 1536 1536 1537 1537 1538 1538 1538 1539 1539 1539 1540 1540 1540 1541 1541 1541 1541 1542 1542 1542 1543 1544 1544
1502 1504 1506 1508 1510 1512 1514 1516 1518 1520 1522 1523 1525 1527 1528 1530 1531 1532 1533 1534 1535 1535 1536 1536 1537 1537 1538 1538 1538 1539 1539 1539 1540 1540 1540 1541 1541 1541 1541 1542 1542 1543 1544
1501 1504 1506 1508 1510 1511 1513 1515 1517 1519 1520 1522 1524 1525 1527 1528 1530 1531 1532 1533 1534 1534 1535 1536 1536 1536 1537 1537 1537 1538 1538 1539 1539 1539 1539 1540 1540 1540 1541 1541 1542 1542 1542
1501 1503 1505 1507 1509 1511 1512 1514 1516 1518 1519 1521 1522 1524 1525 1527 1528 1529 1530 1532 1533 1533 1534 1535 1535 1535 1536 1536 1536 1536 1537 1537 1538 1538 1539 1539 1540 1540 1540 1541 1541 1541 1542
1500 1502 1504 1506 1508 1510 1511 1513 1515 1517 1518 1519 1521 1522 1524 1525 1527 1528 1529 1530 1531 1532 1532 1533 1534 1534 1535 1535 1535 1535 1536 1536 1537 1537 1538 1538 1539 1539 1539 1540 1540 1541 1541
1499 1501 1503 1505 1507 1509 1510 1512 1513 1515 1517 1518 1519 1521 1522 1524 1525 1526 1527 1529 1529 1530 1531 1532 1532 1533 1533 1534 1534 1534 1535 1535 1535 1536 1537 1537 1537 1538 1538 1539 1539 1539 1540
1499 1501 1502 1504 1506 1508 1509 1510 1512 1513 1515 1516 1518 1519 1520 1522 1523 1525 1526 1527 1528 1528 1529 1530 1531 1531 1532 1533 1533 1533 1534 1534 1534 1535 1535 1536 1536 1536 1537 1538 1538 1538 1539
1498 1500 1502 1503 1505 1506 1508 1509 1510 1512 1513 1514 1516 1517 1518 1520 1521 1522 1524 1525 1526 1527 1528 1528 1529 1529 1530 1531 1531 1532 1532 1533 1533 1534 1534 1534 1535 1535 1536 1536 1537 1537 1537
1498 1500 1501 1502 1504 1505 1506 1507 1508 1510 1511 1512 1513 1515 1516 1517 1519 1520 1521 1523 1524 1525 1526 1527 1527 1528 1528 1529 1530 1530 1531 1531 1532 1532 1533 1533 1533 1533 1534 1535 1535 1535 1536
1497 1499 1500 1501 1502 1503 1504 1505 1506 1507 1508 1510 1511 1512 1514 1515 1516 1517 1519 1520 1522 1522 1523 1524 1525 1526 1526 1527 1528 1528 1529 1530 1530 1531 1531 1531 1531 1532 1532 1533 1533 1534 1534
1496 1498 1499 1500 1501 1502 1502 1503 1504 1505 1506 1507 1509 1510 1511 1512 1514 1515 1516 1518 1519 1520 1521 1522 1523 1524 1524 1525 1526 1526 1527 1528 1528 1529 1529 1529 1529 1530 1530 1531 1531 1532 1532
1495 1496 1498 1499 1500 1500 1501 1502 1502 1503 1504 1505 1506 1508 1509 1510 1511 1512 1514 1515 1516 1518 1519 1520 1521 1522 1522 1523 1523 1524 1525 1525 1526 1526 1527 1527 1527 1528 1528 1528 1529 1529 1530
1493 1494 1496 1497 1498 1498 1499 1500 1500 1501 1502 1503 1504 1505 1506 1507 1508 1510 1511 1513 1514 1515 1516 1517 1518 1519 1519 1520 1521 1521 1522 1523 1523 1524 1524 1524 1525 1525 1526 1526 1526 1526 1527
1492 1492 1493 1494 1495 1496 1496 1497 1498 1499 1499 1500 1502 1503 1504 1505 1506 1507 1508 1510 1511 1512 1514 1515 1516 1516 1517 1517 1518 1518 1519 1519 1520 1521 1521 1522 1522 1522 1523 1523 1523 1523 1524
1490 1490 1491 1491 1492 1493 1493 1494 1495 1496 1497 1498 1499 1500 1501 1502 1503 1504 1505 1507 1508 1509 1511 1512 1513 1513 1514 1514 1515 1515 1515 1516 1517 1517 1518 1518 1519 1519 1519 1520 1520 1520 1521
1489 1488 1488 1488 1489 1490 1490 1491 1492 1493 1494 1495 1496 1497 1498 1499 1500 1501 1502 1503 1504 1506 1507 1508 1509 1510 1511 1511 1512 1512 1512 1513 1513 1513 1514 1515 1515 1515 1516 1516 1517 1517 1518
1487 1486 1486 1486 1486 1487 1487 1488 1489 1489 1491 1492 1493 1494 1495 1496 1496 1497 1498 1500 1501 1502 1503 1504 1505 1505 1507 1508 1508 1509 1509 1509 1510 1510 1510 1511 1512 1512 1512 1513 1513 1513 1514
1484 1484 1484 1483 1483 1483 1483 1484 1485 1486 1487 1488 1489 1491 1492 1492 1493 1494 1495 1496 1497 1498 1499 1500 1500 1501 1502 1503 1504 1504 1505 1505 1506 1506 1507 1507 1508 1508 1509 1509 1509 1510 1510
1482 1481 1481 1481 1480 1480 1480 1481 1482 1483 1483 1484 1486 1487 1488 1489 1490 1491 1492 1492 1493 1494 1495 1496 1497 1497 1498 1499 1500 1501 1501 1501 1502 1502 1502 1503 1503 1504 1504 1505 1505 1506 1506
1479 1479 1478 1478 1477 1477 1477 1478 1478 1479 1480 1481 1482 1483 1484 1485 1486 1487 1487 1489 1490 1491 1491 1492 1492 1493 1495 1495 1496 1497 1497 1498 1498 1498 1498 1498 1498 1499 1500 1500 1501 1502 1502